パンスターズ彗星

C/2014 S2 ( PanSTARRS )

English version
Home page
Updated on December 17, 2017

---------------------------------------------------------------------

・ プロフィール

発見日 2014年9月22日
発見光度 20.9等
発見者 Pan-STARRS 1 telescope (Haleakala)

・ 写真集

・ 軌道要素

Epoch 2015 Dec. 4.0 TT = JDT 2457360.5
T 2015 Dec.  9.79811 TT                                 MPCW
q   2.1006360            (2000.0)            P               Q
z  +0.0059021      Peri.   87.80685     -0.02251717     -0.99155684
                   Node     8.12226     +0.03399031     -0.12842062
e   0.9876019      Incl.   64.67027     +0.99916847     -0.01797694
From 2826 observations 2014 Sept. 2-2017 Feb. 25, mean residual 0".6.
     Nongravitational parameters A1 = +8.67, A2 = +1.7583.

・ 星図

・ 光度変化

        m1 =   6.5 + 5 logΔ + 15.0 log r          [    ,-129]  (              〜2015年 8月 2日)
        m1 = -12   + 5 logΔ + 60   log r          [-129,   0]  (2015年 8月 2日〜2015年12月 9日)
        m1 =  -0.5 + 5 logΔ + 23.5 log r(t - 40)  [   0,    ]  (2015年12月 9日〜              )

---------------------------------------------------------------------

軌道要素はM.P.E.C. 2017-E59に掲載されたものです。
星図はステラナビゲータ Ver.8 (アストロアーツ) で作成したものです。
光度グラフはComet for Windowsで作成したものです。

---------------------------------------------------------------------

Copyright(C) Seiichi Yoshida (comet@aerith.net). All rights reserved.